EWG47 EHRD-EDDK

Flight info

Callsign EWG47
Flight time 0h 38m
Altitude 30000
Route ARNEM L620 SONEB Z841 GMH DCT KOPAG KOPAG1C
Aircraft A320/M-SDE3FGHIRWY/LB1

Departure

Time 2026-05-05 19:05
Airport Rotterdam The Hague Airport (EHRD)

Arrival

Time 2026-05-05 19:43
Airport Cologne Bonn Airport (EDDK)
Time Latitude Longitude Altitude Speed Heading
2026-05-05 18:40 51.95110 4.43488 1 ft 0 kts 327°
2026-05-05 19:02 51.95123 4.43474 -26 ft 3 kts 327°
2026-05-05 19:02 51.95140 4.43458 1 ft 5 kts 335°
2026-05-05 19:02 51.95167 4.43486 1 ft 7 kts 29°
2026-05-05 19:02 51.95217 4.43462 1 ft 9 kts 327°
2026-05-05 19:03 51.95237 4.43384 1 ft 8 kts 245°
2026-05-05 19:03 51.95209 4.43314 1 ft 7 kts 236°
2026-05-05 19:03 51.95178 4.43239 1 ft 9 kts 236°
2026-05-05 19:03 51.95145 4.43144 1 ft 12 kts 243°
2026-05-05 19:04 51.95108 4.43008 1 ft 12 kts 257°
2026-05-05 19:04 51.95153 4.42904 1 ft 15 kts 327°
2026-05-05 19:04 51.95222 4.42864 2 ft 10 kts 22°
2026-05-05 19:04 51.95287 4.43016 1 ft 40 kts 56°
2026-05-05 19:05 51.95574 4.43736 0 ft 109 kts 57°
2026-05-05 19:05 51.96086 4.44989 151 ft 148 kts 54°
2026-05-05 19:05 51.96641 4.46396 913 ft 147 kts 56°
2026-05-05 19:05 51.97188 4.47813 1626 ft 154 kts 54°
2026-05-05 19:06 51.97798 4.49390 2051 ft 176 kts 56°
2026-05-05 19:06 51.98466 4.51225 2511 ft 202 kts 62°
2026-05-05 19:06 51.99120 4.53415 2955 ft 231 kts 63°
2026-05-05 19:06 51.99826 4.55826 3021 ft 239 kts 60°
2026-05-05 19:07 52.00915 4.57838 3031 ft 241 kts 33°
2026-05-05 19:07 52.01944 4.58586 3272 ft 251 kts 21°
2026-05-05 19:07 52.04096 4.59995 4763 ft 248 kts 25°
2026-05-05 19:07 52.05546 4.61564 5688 ft 256 kts 44°
2026-05-05 19:08 52.06776 4.63735 6520 ft 265 kts 48°
2026-05-05 19:08 52.07475 4.65370 7075 ft 271 kts 62°
2026-05-05 19:08 52.07925 4.68375 7920 ft 280 kts 89°
2026-05-05 19:08 52.07712 4.71550 8839 ft 285 kts 97°
2026-05-05 19:09 52.07421 4.74758 9749 ft 289 kts 98°
2026-05-05 19:09 52.07124 4.78057 10316 ft 305 kts 95°
2026-05-05 19:09 52.07016 4.81632 10612 ft 329 kts 91°
2026-05-05 19:09 52.06950 4.85479 10885 ft 351 kts 90°
2026-05-05 19:10 52.06885 4.89516 11453 ft 361 kts 91°
2026-05-05 19:10 52.06819 4.93614 12230 ft 365 kts 91°
2026-05-05 19:10 52.06750 4.97791 12731 ft 368 kts 91°
2026-05-05 19:10 52.06681 5.01922 12877 ft 368 kts 91°
2026-05-05 19:11 52.06608 5.06074 12907 ft 368 kts 91°
2026-05-05 19:11 52.06533 5.10227 12900 ft 368 kts 91°
2026-05-05 19:11 52.06457 5.14389 12899 ft 368 kts 91°
2026-05-05 19:11 52.06379 5.18541 12898 ft 368 kts 91°
2026-05-05 19:12 52.06300 5.22695 12892 ft 368 kts 91°
2026-05-05 19:12 52.06219 5.26855 12897 ft 368 kts 91°
2026-05-05 19:12 52.06138 5.31008 12908 ft 368 kts 91°
2026-05-05 19:12 52.06052 5.35212 13517 ft 373 kts 91°
2026-05-05 19:13 52.05965 5.39433 14295 ft 375 kts 91°
2026-05-05 19:13 52.05877 5.43677 15041 ft 376 kts 91°
2026-05-05 19:13 52.05787 5.47941 15731 ft 379 kts 91°
2026-05-05 19:13 52.05696 5.52226 16422 ft 381 kts 91°
2026-05-05 19:14 52.05606 5.56551 16858 ft 386 kts 92°
2026-05-05 19:14 52.05511 5.60932 17510 ft 388 kts 92°
2026-05-05 19:14 52.05413 5.65323 18207 ft 389 kts 92°
2026-05-05 19:14 52.05312 5.69747 18711 ft 394 kts 92°
2026-05-05 19:15 52.05208 5.74215 19202 ft 398 kts 93°
2026-05-05 19:15 52.05101 5.78735 19696 ft 402 kts 93°
2026-05-05 19:15 52.04990 5.83303 20152 ft 407 kts 94°
2026-05-05 19:15 52.04876 5.87930 20618 ft 411 kts 94°
2026-05-05 19:16 52.04757 5.92597 21093 ft 415 kts 94°
2026-05-05 19:16 52.04639 5.97294 21577 ft 418 kts 94°
2026-05-05 19:16 52.04518 6.02044 22056 ft 422 kts 94°
2026-05-05 19:16 52.04395 6.06826 22530 ft 425 kts 94°
2026-05-05 19:17 52.04267 6.11645 22995 ft 429 kts 95°
2026-05-05 19:17 52.04136 6.16503 23448 ft 432 kts 95°
2026-05-05 19:17 52.04005 6.21391 23826 ft 435 kts 95°
2026-05-05 19:17 52.03873 6.26240 24209 ft 437 kts 95°
2026-05-05 19:18 52.03737 6.31183 24598 ft 439 kts 95°
2026-05-05 19:18 52.03596 6.36160 24986 ft 441 kts 95°
2026-05-05 19:18 52.03452 6.41145 25349 ft 444 kts 95°
2026-05-05 19:18 52.03304 6.46175 25718 ft 446 kts 95°
2026-05-05 19:19 52.03154 6.51213 26094 ft 448 kts 96°
2026-05-05 19:19 52.02999 6.56278 26455 ft 450 kts 96°
2026-05-05 19:19 52.02836 6.61399 26811 ft 452 kts 96°
2026-05-05 19:19 52.02674 6.66475 27155 ft 454 kts 96°
2026-05-05 19:20 52.02379 6.71578 27486 ft 453 kts 102°
2026-05-05 19:20 52.01643 6.76533 27817 ft 452 kts 111°
2026-05-05 19:20 52.00459 6.81251 28148 ft 450 kts 119°
2026-05-05 19:20 51.98891 6.85645 28470 ft 450 kts 124°
2026-05-05 19:21 51.97242 6.89972 28776 ft 452 kts 124°
2026-05-05 19:21 51.95599 6.94303 29221 ft 450 kts 124°
2026-05-05 19:21 51.93962 6.98623 29691 ft 449 kts 124°
2026-05-05 19:21 51.92331 7.02932 29857 ft 447 kts 124°
2026-05-05 19:22 51.89102 7.11450 29862 ft 444 kts 124°
2026-05-05 19:22 51.85848 7.19978 29862 ft 444 kts 124°
2026-05-05 19:23 51.82604 7.28473 29860 ft 443 kts 124°
2026-05-05 19:23 51.81002 7.32651 29738 ft 441 kts 124°
2026-05-05 19:23 51.79393 7.36841 28891 ft 438 kts 124°
2026-05-05 19:24 51.77760 7.41081 27783 ft 440 kts 124°
2026-05-05 19:24 51.76161 7.45228 26621 ft 443 kts 124°
2026-05-05 19:24 51.74524 7.49474 25453 ft 447 kts 124°
2026-05-05 19:24 51.72681 7.53465 24419 ft 446 kts 133°
2026-05-05 19:25 51.70458 7.56945 23599 ft 439 kts 142°
2026-05-05 19:25 51.67978 7.59771 22713 ft 434 kts 150°
2026-05-05 19:25 51.65299 7.61920 21880 ft 429 kts 159°
2026-05-05 19:25 51.62507 7.63542 21095 ft 424 kts 161°
2026-05-05 19:26 51.59739 7.65117 20331 ft 421 kts 161°
2026-05-05 19:26 51.56980 7.66687 19912 ft 420 kts 161°
2026-05-05 19:26 51.54227 7.68254 19666 ft 421 kts 161°
2026-05-05 19:26 51.51470 7.69820 19377 ft 418 kts 161°
2026-05-05 19:27 51.48743 7.71368 18703 ft 413 kts 161°
2026-05-05 19:27 51.46041 7.72899 18027 ft 409 kts 161°
2026-05-05 19:27 51.43371 7.74406 17257 ft 406 kts 160°
2026-05-05 19:27 51.40720 7.75900 16526 ft 402 kts 160°
2026-05-05 19:28 51.38092 7.77380 15821 ft 399 kts 160°
2026-05-05 19:28 51.35499 7.78844 15402 ft 389 kts 160°
2026-05-05 19:28 51.32994 7.80259 15258 ft 373 kts 160°
2026-05-05 19:28 51.30577 7.81622 14913 ft 364 kts 160°
2026-05-05 19:29 51.28194 7.82958 14425 ft 361 kts 161°
2026-05-05 19:29 51.25830 7.84282 13885 ft 359 kts 161°
2026-05-05 19:29 51.23480 7.85596 13326 ft 357 kts 160°
2026-05-05 19:29 51.21124 7.86812 12782 ft 354 kts 166°
2026-05-05 19:30 51.18740 7.87380 12631 ft 339 kts 176°
2026-05-05 19:30 51.16446 7.87312 12348 ft 331 kts 186°
2026-05-05 19:30 51.14191 7.86624 11912 ft 329 kts 195°
2026-05-05 19:30 51.12066 7.85346 11383 ft 325 kts 205°
2026-05-05 19:31 51.10039 7.83764 10725 ft 323 kts 205°
2026-05-05 19:31 51.08056 7.82222 10457 ft 310 kts 205°
2026-05-05 19:31 51.06154 7.80745 10267 ft 300 kts 206°
2026-05-05 19:31 51.04311 7.79235 9999 ft 295 kts 207°
2026-05-05 19:32 51.02521 7.77702 9732 ft 290 kts 208°
2026-05-05 19:32 51.00768 7.76178 9450 ft 285 kts 208°
2026-05-05 19:32 50.99033 7.74670 9157 ft 283 kts 208°
2026-05-05 19:32 50.97307 7.73178 8874 ft 282 kts 208°
2026-05-05 19:33 50.95607 7.71718 8572 ft 280 kts 208°
2026-05-05 19:33 50.93894 7.70254 8291 ft 279 kts 208°
2026-05-05 19:33 50.92189 7.68797 8015 ft 278 kts 208°
2026-05-05 19:33 50.90493 7.67351 7737 ft 277 kts 208°
2026-05-05 19:34 50.88799 7.65911 7453 ft 275 kts 207°
2026-05-05 19:34 50.87117 7.64482 7178 ft 274 kts 208°
2026-05-05 19:34 50.85456 7.63071 6905 ft 267 kts 208°
2026-05-05 19:35 50.82242 7.60347 6363 ft 256 kts 207°
2026-05-05 19:35 50.80690 7.59037 6086 ft 248 kts 207°
2026-05-05 19:35 50.79205 7.57781 5802 ft 236 kts 208°
2026-05-05 19:35 50.77790 7.56584 5518 ft 226 kts 208°
2026-05-05 19:36 50.76432 7.55435 5239 ft 217 kts 208°
2026-05-05 19:36 50.75112 7.54332 4961 ft 213 kts 207°
2026-05-05 19:36 50.73802 7.53242 4690 ft 213 kts 207°
2026-05-05 19:36 50.72487 7.52149 4414 ft 214 kts 207°
2026-05-05 19:37 50.71172 7.51052 4139 ft 214 kts 208°
2026-05-05 19:37 50.70029 7.49578 3856 ft 214 kts 236°
2026-05-05 19:37 50.69427 7.47427 3582 ft 216 kts 252°
2026-05-05 19:37 50.69245 7.45092 3328 ft 216 kts 277°
2026-05-05 19:38 50.69506 7.42758 3114 ft 217 kts 283°
2026-05-05 19:38 50.69844 7.40435 3004 ft 218 kts 285°
2026-05-05 19:38 50.70478 7.38320 2982 ft 210 kts 310°
2026-05-05 19:38 50.71516 7.36741 3010 ft 207 kts 319°
2026-05-05 19:39 50.72573 7.35221 3006 ft 203 kts 319°
2026-05-05 19:39 50.73594 7.33754 3001 ft 201 kts 319°
2026-05-05 19:39 50.74635 7.32258 2999 ft 203 kts 319°
2026-05-05 19:39 50.75701 7.30726 2919 ft 203 kts 318°
2026-05-05 19:40 50.76719 7.29265 2717 ft 199 kts 320°
2026-05-05 19:40 50.77738 7.27796 2445 ft 198 kts 319°
2026-05-05 19:40 50.78752 7.26338 2169 ft 195 kts 320°
2026-05-05 19:40 50.79744 7.24914 1916 ft 190 kts 320°
2026-05-05 19:41 50.80692 7.23542 1664 ft 179 kts 320°
2026-05-05 19:41 50.81572 7.22268 1427 ft 164 kts 320°
2026-05-05 19:41 50.82380 7.21103 1202 ft 150 kts 319°
2026-05-05 19:41 50.83129 7.20023 994 ft 143 kts 317°
2026-05-05 19:42 50.83854 7.18976 796 ft 139 kts 317°
2026-05-05 19:42 50.84567 7.17946 621 ft 138 kts 317°
2026-05-05 19:42 50.85267 7.16932 400 ft 135 kts 317°
2026-05-05 19:42 50.85954 7.15952 308 ft 125 kts 317°
2026-05-05 19:43 50.86495 7.15170 280 ft 83 kts 317°
2026-05-05 19:43 50.86875 7.14619 262 ft 66 kts 318°
2026-05-05 19:43 50.87170 7.14191 248 ft 44 kts 317°
2026-05-05 19:43 50.87292 7.13921 242 ft 26 kts 289°
2026-05-05 19:44 50.87325 7.13651 237 ft 25 kts 279°
2026-05-05 19:44 50.87351 7.13416 232 ft 21 kts 279°
2026-05-05 19:44 50.87404 7.13226 232 ft 18 kts 316°
2026-05-05 19:44 50.87495 7.13097 232 ft 17 kts 318°
2026-05-05 19:45 50.87575 7.12979 232 ft 15 kts 317°
2026-05-05 19:45 50.87649 7.12871 232 ft 14 kts 318°
2026-05-05 19:45 50.87716 7.12775 232 ft 12 kts 318°
2026-05-05 19:45 50.87776 7.12689 232 ft 11 kts 318°
2026-05-05 19:46 50.87831 7.12621 232 ft 10 kts 333°
2026-05-05 19:46 50.87911 7.12608 232 ft 12 kts 345°
2026-05-05 19:46 50.87971 7.12538 232 ft 10 kts 318°
2026-05-05 19:46 50.88023 7.12463 232 ft 10 kts 317°
2026-05-05 19:47 50.88057 7.12394 232 ft 6 kts 266°
2026-05-05 19:47 50.88017 7.12332 234 ft 11 kts 217°
2026-05-05 19:47 50.87984 7.12290 232 ft 3 kts 228°
2026-05-05 19:47 50.87977 7.12260 232 ft 1 kts 259°
2026-05-05 19:48 50.87978 7.12240 232 ft 0 kts 274°
2026-05-05 19:48 50.87978 7.12224 232 ft 1 kts 273°
2026-05-05 19:48 50.87979 7.12210 232 ft 1 kts 276°
2026-05-05 19:48 50.87980 7.12200 232 ft 0 kts 275°